GEFSCGP_prec_meanprecacc_324.txt.gz
Total_Precipitation_Accumulation
0.03 0.05 0.09 0.10 0.11 0.10 0.14 0.16 0.20 0.24 0.20 0.23 0.41 0.60 0.64 0.81 1.10 1.41 1.76 1.99 2.33 2.67 3.05 3.50 3.60 3.86 4.17 4.78 5.27 5.55 5.63 5.56 5.33 5.02 4.67 4.48 4.45 4.40 4.19 3.96 3.79 3.68 3.55 3.58
0.07 0.06 0.05 0.06 0.09 0.10 0.13 0.17 0.21 0.24 0.21 0.23 0.43 0.64 0.72 1.05 1.38 1.43 1.60 1.73 1.93 2.37 2.71 3.06 3.26 3.35 3.78 4.38 4.84 5.04 4.86 4.87 4.74 4.51 4.44 4.42 4.65 4.37 4.11 3.94 3.77 3.48 3.44 3.54
0.08 0.07 0.04 0.04 0.06 0.08 0.11 0.12 0.16 0.24 0.24 0.30 0.47 0.86 1.02 1.22 1.35 1.38 1.47 1.61 1.72 2.01 2.33 2.67 2.82 2.97 3.21 3.34 3.63 3.85 4.05 4.06 3.99 3.99 3.97 4.06 4.32 4.17 4.03 3.87 3.75 3.37 3.20 3.20
0.05 0.05 0.05 0.06 0.07 0.08 0.11 0.11 0.11 0.17 0.26 0.42 0.57 1.17 1.37 1.31 1.35 1.47 1.45 1.42 1.66 1.96 1.96 2.08 2.34 2.51 2.79 2.98 3.19 3.29 3.38 3.53 3.59 3.70 3.61 3.49 3.42 3.43 3.44 3.49 3.44 3.42 3.27 3.15
0.06 0.05 0.05 0.07 0.07 0.07 0.08 0.09 0.10 0.20 0.31 0.45 0.54 0.90 1.29 1.59 1.66 1.45 1.37 1.26 1.47 1.60 1.51 1.51 1.70 1.85 2.14 2.40 2.64 2.79 2.92 3.06 3.28 3.39 3.33 3.31 3.12 3.14 3.24 3.28 3.30 3.29 3.23 3.15
0.07 0.06 0.06 0.06 0.06 0.06 0.07 0.11 0.19 0.35 0.54 0.81 0.66 0.80 1.24 1.55 1.79 1.53 1.31 1.22 1.32 1.29 1.26 1.38 1.54 1.65 1.81 2.13 2.33 2.45 2.58 2.65 2.85 3.01 3.10 3.19 3.15 3.07 3.06 3.08 3.08 3.08 3.09 2.99
0.13 0.13 0.10 0.07 0.07 0.08 0.09 0.19 0.61 1.00 1.28 1.28 0.83 0.86 1.23 1.20 1.22 1.25 1.21 1.24 1.26 1.19 1.15 1.16 1.25 1.40 1.59 1.84 2.04 2.10 2.21 2.30 2.37 2.49 2.67 2.83 2.85 2.89 2.76 2.69 2.74 2.74 2.56 2.48
0.18 0.25 0.15 0.10 0.10 0.11 0.13 0.21 0.67 1.06 1.09 1.10 0.93 1.19 1.52 1.21 1.12 1.05 1.13 1.21 1.20 1.07 1.00 1.03 1.13 1.19 1.29 1.49 1.72 1.79 1.90 2.02 2.19 2.26 2.38 2.49 2.52 2.54 2.40 2.48 2.48 2.40 2.17 2.12
0.12 0.13 0.09 0.08 0.10 0.14 0.20 0.22 0.30 0.57 0.67 0.85 1.04 1.34 1.54 1.20 1.13 1.23 1.34 1.31 1.26 1.01 0.86 0.89 0.90 0.95 0.98 1.09 1.27 1.41 1.67 1.83 1.94 2.05 2.17 2.18 2.15 2.24 2.20 2.26 2.41 2.26 2.23 2.10
0.08 0.08 0.08 0.08 0.10 0.14 0.18 0.18 0.25 0.50 0.75 0.93 1.02 1.41 1.71 1.61 1.44 1.37 1.42 1.27 0.99 0.81 0.72 0.69 0.69 0.70 0.79 0.92 1.06 1.25 1.44 1.51 1.62 1.84 1.98 1.89 2.09 2.16 2.14 2.14 2.06 2.07 2.16 2.14
0.06 0.06 0.08 0.10 0.13 0.15 0.20 0.23 0.32 0.47 0.54 0.78 1.17 1.40 1.35 1.35 1.26 1.29 1.26 1.09 0.86 0.71 0.65 0.66 0.67 0.69 0.78 0.85 1.02 1.23 1.46 1.57 1.57 1.68 1.82 1.89 1.97 2.08 2.10 2.03 1.93 1.96 2.03 2.08
0.08 0.08 0.12 0.17 0.19 0.18 0.18 0.22 0.31 0.47 0.47 0.52 0.84 1.11 0.78 0.81 0.81 0.88 0.94 0.81 0.75 0.72 0.67 0.73 0.79 0.80 0.82 0.93 1.08 1.27 1.44 1.60 1.66 1.78 1.97 2.11 2.05 2.05 2.09 2.05 1.92 1.82 1.77 1.86
0.12 0.13 0.20 0.41 0.50 0.31 0.20 0.19 0.23 0.28 0.30 0.35 0.65 0.90 0.60 0.65 0.75 0.87 0.96 0.96 0.91 0.83 0.69 0.73 0.92 1.00 0.95 1.03 1.22 1.46 1.61 1.72 1.83 1.96 2.18 2.32 2.19 2.10 2.12 2.04 1.85 1.73 1.67 1.73
0.13 0.16 0.22 0.47 0.55 0.42 0.31 0.25 0.21 0.25 0.33 0.32 0.37 0.59 0.59 0.66 0.81 0.91 0.97 0.98 0.88 0.80 0.76 0.83 0.92 0.98 1.14 1.20 1.32 1.51 1.56 1.72 1.84 1.86 2.04 2.19 2.11 1.95 1.85 1.84 1.80 1.79 1.77 1.73
0.11 0.13 0.15 0.18 0.26 0.32 0.34 0.29 0.23 0.20 0.23 0.36 0.37 0.43 0.55 0.70 0.72 0.89 0.95 0.90 0.85 0.81 0.80 0.87 0.99 1.00 1.03 1.11 1.12 1.21 1.25 1.45 1.48 1.55 1.64 1.72 1.67 1.66 1.61 1.58 1.55 1.60 1.66 1.63
0.19 0.19 0.18 0.17 0.20 0.24 0.27 0.28 0.22 0.16 0.15 0.18 0.31 0.54 0.57 0.63 0.68 0.81 0.82 0.81 0.84 0.92 0.96 1.00 1.07 1.17 1.07 1.03 0.99 0.94 1.01 1.21 1.37 1.50 1.43 1.44 1.50 1.42 1.38 1.40 1.40 1.46 1.54 1.66
0.38 0.34 0.31 0.27 0.23 0.28 0.33 0.28 0.23 0.16 0.15 0.16 0.35 0.62 0.63 0.66 0.73 0.85 0.91 0.92 0.82 0.82 0.90 1.03 1.13 1.17 0.99 0.96 0.95 0.97 0.99 1.10 1.22 1.32 1.40 1.47 1.51 1.46 1.39 1.44 1.56 1.57 1.71 1.77
0.46 0.51 0.45 0.39 0.46 0.60 0.40 0.28 0.27 0.30 0.26 0.26 0.32 0.42 0.50 0.66 0.70 0.72 0.79 0.92 0.94 0.96 1.04 1.10 1.10 1.10 1.07 1.02 1.05 1.05 1.02 1.10 1.23 1.26 1.35 1.48 1.51 1.46 1.46 1.46 1.51 1.63 1.80 1.86
0.36 0.54 0.56 0.53 0.63 0.53 0.45 0.39 0.37 0.45 0.50 0.42 0.50 0.48 0.54 0.61 0.69 0.86 0.74 0.79 0.82 0.98 1.04 1.09 1.11 1.13 1.17 1.17 1.25 1.24 1.15 1.19 1.32 1.43 1.50 1.47 1.52 1.58 1.63 1.65 1.69 1.76 1.80 1.81
0.46 0.59 0.74 0.69 0.82 0.83 0.69 0.58 0.52 0.55 0.90 0.69 0.66 0.68 0.78 0.83 0.98 1.17 0.95 0.85 0.93 1.00 0.97 1.02 1.01 1.09 1.19 1.22 1.36 1.45 1.45 1.42 1.47 1.58 1.69 1.72 1.82 1.91 1.87 1.97 2.10 2.12 2.11 2.05
0.96 0.96 0.88 0.89 1.01 1.01 0.79 0.67 0.64 1.10 1.33 0.87 0.78 0.84 0.84 0.89 1.01 1.05 1.05 1.05 1.03 0.86 0.83 0.89 1.00 1.01 1.12 1.31 1.52 1.67 1.66 1.59 1.66 1.79 1.95 2.10 2.21 2.39 2.53 2.62 2.52 2.42 2.42 2.43
1.14 1.23 1.22 1.25 1.42 1.35 0.86 0.80 1.16 1.42 1.10 1.11 0.99 0.93 0.94 0.88 0.95 1.03 1.04 1.01 0.89 0.88 0.87 0.94 1.07 1.08 1.13 1.32 1.51 1.68 1.74 1.76 1.93 2.08 2.26 2.38 2.57 2.67 2.77 3.15 3.20 3.17 3.09 2.81
1.29 1.35 1.35 1.41 1.51 1.25 1.06 1.22 1.32 1.31 1.29 1.34 1.37 1.19 1.09 1.01 1.01 1.05 0.99 0.92 0.85 0.86 0.88 0.95 1.10 1.23 1.26 1.38 1.61 1.88 1.94 1.99 2.12 2.27 2.48 2.64 2.71 2.85 2.99 3.17 3.18 3.18 3.10 2.83
1.46 1.22 1.38 1.55 1.65 1.43 1.36 1.36 1.40 1.39 1.32 1.33 1.42 1.54 1.51 1.26 1.11 1.12 1.07 0.99 0.98 1.04 1.01 1.05 1.16 1.32 1.50 1.62 1.80 2.06 2.12 2.25 2.33 2.39 2.53 2.64 2.74 2.86 3.04 3.18 3.13 3.07 3.00 2.92
1.45 1.48 1.69 1.97 1.95 1.77 1.62 1.65 1.74 1.63 1.49 1.52 1.53 1.58 1.64 1.35 1.13 1.09 1.15 1.13 1.13 1.23 1.27 1.26 1.32 1.44 1.67 1.83 1.99 2.07 2.12 2.33 2.52 2.51 2.56 2.66 2.68 2.71 2.83 2.92 3.02 2.97 2.91 2.93
1.47 1.67 1.97 2.21 2.02 2.09 1.92 1.62 1.71 1.82 1.68 1.67 1.62 1.55 1.42 1.32 1.25 1.28 1.30 1.29 1.29 1.40 1.43 1.43 1.43 1.53 1.72 1.89 2.09 2.19 2.33 2.48 2.63 2.68 2.60 2.62 2.66 2.67 2.69 2.67 2.57 2.58 2.54 2.49

GEFSCGP_prec_meanprecacc_330.txt.gz
Total_Precipitation_Accumulation
0.04 0.05 0.09 0.10 0.11 0.11 0.14 0.16 0.20 0.24 0.21 0.24 0.41 0.61 0.64 0.81 1.10 1.42 1.78 2.04 2.38 2.72 3.10 3.53 3.61 3.87 4.18 4.78 5.28 5.55 5.64 5.57 5.34 5.04 4.69 4.51 4.51 4.49 4.23 3.98 3.80 3.69 3.55 3.59
0.07 0.07 0.06 0.07 0.10 0.11 0.13 0.17 0.21 0.24 0.21 0.23 0.43 0.64 0.72 1.06 1.38 1.43 1.61 1.76 1.96 2.40 2.74 3.08 3.27 3.36 3.78 4.39 4.85 5.05 4.87 4.88 4.74 4.53 4.46 4.45 4.70 4.41 4.13 3.95 3.78 3.49 3.45 3.55
0.08 0.07 0.04 0.04 0.06 0.09 0.12 0.12 0.16 0.24 0.24 0.31 0.47 0.86 1.02 1.22 1.36 1.39 1.47 1.62 1.73 2.02 2.34 2.68 2.84 2.98 3.22 3.34 3.64 3.85 4.06 4.08 4.01 4.02 3.99 4.09 4.34 4.19 4.04 3.88 3.77 3.38 3.21 3.20
0.05 0.05 0.05 0.06 0.07 0.09 0.12 0.11 0.11 0.17 0.27 0.42 0.57 1.17 1.38 1.31 1.35 1.47 1.46 1.43 1.67 1.97 1.97 2.09 2.35 2.52 2.80 2.98 3.20 3.29 3.39 3.55 3.62 3.74 3.65 3.51 3.43 3.45 3.45 3.50 3.46 3.44 3.28 3.16
0.06 0.05 0.06 0.07 0.08 0.07 0.08 0.09 0.11 0.20 0.31 0.45 0.54 0.90 1.29 1.60 1.66 1.45 1.38 1.26 1.47 1.62 1.52 1.51 1.71 1.86 2.15 2.40 2.64 2.80 2.94 3.09 3.33 3.46 3.40 3.35 3.15 3.16 3.25 3.30 3.32 3.31 3.25 3.17
0.07 0.06 0.06 0.06 0.06 0.06 0.07 0.11 0.20 0.36 0.54 0.81 0.66 0.81 1.25 1.55 1.80 1.54 1.31 1.22 1.33 1.30 1.27 1.39 1.55 1.66 1.82 2.14 2.34 2.46 2.60 2.71 2.92 3.08 3.16 3.24 3.20 3.11 3.09 3.10 3.11 3.10 3.11 3.01
0.13 0.13 0.10 0.07 0.07 0.08 0.09 0.19 0.61 1.00 1.28 1.28 0.83 0.86 1.23 1.21 1.23 1.26 1.21 1.24 1.27 1.20 1.16 1.16 1.25 1.40 1.59 1.85 2.05 2.12 2.24 2.35 2.42 2.53 2.73 2.90 2.91 2.92 2.79 2.71 2.77 2.77 2.59 2.51
0.18 0.25 0.15 0.10 0.10 0.11 0.13 0.21 0.68 1.06 1.10 1.10 0.93 1.19 1.53 1.23 1.15 1.07 1.14 1.23 1.22 1.07 1.01 1.03 1.13 1.20 1.30 1.50 1.74 1.81 1.93 2.06 2.22 2.29 2.43 2.58 2.60 2.59 2.43 2.51 2.53 2.45 2.21 2.15
0.12 0.13 0.09 0.08 0.10 0.14 0.20 0.22 0.31 0.57 0.67 0.85 1.04 1.34 1.55 1.21 1.15 1.26 1.36 1.33 1.27 1.02 0.87 0.90 0.90 0.95 0.99 1.10 1.29 1.43 1.69 1.85 1.96 2.07 2.21 2.25 2.22 2.31 2.29 2.37 2.50 2.34 2.29 2.14
0.08 0.08 0.08 0.08 0.10 0.14 0.18 0.19 0.26 0.51 0.76 0.93 1.02 1.41 1.71 1.62 1.45 1.37 1.43 1.28 1.00 0.83 0.72 0.69 0.70 0.70 0.80 0.93 1.07 1.27 1.45 1.52 1.63 1.86 2.01 1.94 2.15 2.25 2.25 2.26 2.17 2.15 2.20 2.18
0.07 0.06 0.08 0.10 0.13 0.16 0.21 0.24 0.33 0.48 0.55 0.79 1.17 1.41 1.36 1.36 1.26 1.29 1.27 1.10 0.87 0.73 0.66 0.67 0.68 0.70 0.78 0.85 1.02 1.23 1.46 1.58 1.58 1.69 1.86 1.95 2.03 2.15 2.18 2.10 2.00 2.03 2.08 2.12
0.08 0.08 0.12 0.18 0.19 0.18 0.19 0.22 0.31 0.48 0.47 0.52 0.84 1.12 0.78 0.81 0.81 0.89 0.95 0.82 0.76 0.74 0.68 0.74 0.80 0.80 0.82 0.93 1.09 1.28 1.44 1.61 1.68 1.83 2.06 2.21 2.13 2.10 2.13 2.07 1.95 1.86 1.81 1.89
0.12 0.13 0.21 0.41 0.50 0.31 0.20 0.20 0.23 0.29 0.30 0.35 0.65 0.90 0.60 0.65 0.76 0.87 0.96 0.97 0.92 0.84 0.70 0.74 0.92 1.00 0.95 1.03 1.23 1.46 1.62 1.75 1.86 2.00 2.24 2.37 2.21 2.11 2.13 2.04 1.86 1.74 1.68 1.75
0.13 0.16 0.23 0.47 0.55 0.42 0.31 0.25 0.21 0.25 0.33 0.32 0.37 0.59 0.59 0.66 0.82 0.91 0.98 0.99 0.89 0.80 0.77 0.84 0.92 0.98 1.14 1.21 1.33 1.53 1.59 1.76 1.87 1.87 2.05 2.19 2.11 1.96 1.86 1.85 1.81 1.80 1.78 1.74
0.11 0.14 0.15 0.18 0.26 0.32 0.34 0.29 0.23 0.20 0.23 0.36 0.37 0.43 0.55 0.70 0.73 0.90 0.97 0.91 0.86 0.81 0.81 0.88 1.00 1.01 1.04 1.12 1.13 1.22 1.26 1.46 1.49 1.55 1.64 1.72 1.67 1.67 1.62 1.59 1.57 1.62 1.68 1.65
0.20 0.20 0.18 0.18 0.20 0.24 0.27 0.28 0.22 0.16 0.15 0.18 0.31 0.54 0.58 0.63 0.68 0.82 0.83 0.82 0.85 0.93 0.97 1.01 1.08 1.19 1.09 1.05 1.00 0.95 1.02 1.21 1.38 1.51 1.45 1.46 1.52 1.44 1.40 1.42 1.43 1.48 1.56 1.68
0.39 0.35 0.32 0.28 0.24 0.29 0.34 0.29 0.24 0.17 0.15 0.17 0.35 0.63 0.63 0.66 0.73 0.85 0.92 0.93 0.83 0.83 0.91 1.05 1.15 1.19 1.02 0.99 0.97 0.99 1.01 1.11 1.23 1.34 1.42 1.50 1.54 1.49 1.43 1.48 1.59 1.59 1.73 1.79
0.46 0.51 0.45 0.40 0.48 0.61 0.41 0.29 0.27 0.30 0.27 0.26 0.33 0.43 0.51 0.66 0.71 0.73 0.80 0.94 0.96 0.98 1.07 1.13 1.12 1.13 1.09 1.05 1.07 1.07 1.04 1.11 1.24 1.27 1.37 1.50 1.54 1.50 1.51 1.51 1.54 1.65 1.83 1.89
0.37 0.54 0.56 0.54 0.63 0.54 0.46 0.39 0.38 0.45 0.50 0.42 0.51 0.49 0.55 0.61 0.70 0.87 0.76 0.81 0.84 0.99 1.05 1.10 1.12 1.14 1.19 1.18 1.26 1.25 1.16 1.19 1.32 1.44 1.51 1.48 1.53 1.60 1.66 1.68 1.71 1.79 1.83 1.85
0.47 0.60 0.74 0.69 0.82 0.83 0.69 0.58 0.52 0.55 0.90 0.69 0.67 0.69 0.78 0.84 0.99 1.17 0.95 0.86 0.93 1.01 0.98 1.02 1.01 1.09 1.20 1.23 1.38 1.47 1.47 1.44 1.48 1.59 1.70 1.72 1.83 1.93 1.90 1.99 2.12 2.14 2.14 2.09
0.96 0.96 0.88 0.89 1.01 1.01 0.79 0.68 0.64 1.10 1.33 0.87 0.78 0.84 0.85 0.90 1.02 1.06 1.06 1.06 1.04 0.87 0.84 0.90 1.01 1.02 1.13 1.32 1.53 1.69 1.68 1.61 1.68 1.81 1.96 2.11 2.22 2.41 2.55 2.64 2.55 2.45 2.46 2.47
1.15 1.24 1.22 1.25 1.43 1.36 0.86 0.81 1.16 1.42 1.10 1.11 1.00 0.94 0.95 0.89 0.96 1.04 1.05 1.02 0.90 0.89 0.88 0.95 1.08 1.09 1.14 1.33 1.52 1.70 1.75 1.78 1.95 2.10 2.29 2.41 2.60 2.69 2.80 3.18 3.23 3.21 3.13 2.85
1.29 1.35 1.35 1.41 1.52 1.25 1.07 1.22 1.32 1.31 1.29 1.35 1.38 1.20 1.09 1.02 1.03 1.06 1.00 0.93 0.86 0.87 0.89 0.96 1.12 1.24 1.28 1.39 1.63 1.90 1.95 2.01 2.15 2.30 2.51 2.67 2.74 2.89 3.03 3.20 3.20 3.21 3.15 2.88
1.46 1.22 1.38 1.55 1.65 1.43 1.36 1.37 1.40 1.39 1.33 1.33 1.42 1.54 1.51 1.27 1.12 1.13 1.08 0.99 0.98 1.04 1.02 1.07 1.19 1.35 1.52 1.64 1.83 2.08 2.14 2.28 2.36 2.42 2.55 2.66 2.76 2.89 3.06 3.21 3.15 3.10 3.03 2.97
1.45 1.49 1.70 1.97 1.95 1.77 1.62 1.65 1.75 1.63 1.50 1.52 1.54 1.58 1.64 1.35 1.14 1.09 1.16 1.14 1.14 1.24 1.29 1.29 1.36 1.49 1.71 1.86 2.01 2.10 2.15 2.36 2.55 2.54 2.58 2.67 2.70 2.73 2.86 2.94 3.05 3.00 2.94 2.96
1.47 1.67 1.97 2.22 2.03 2.09 1.93 1.63 1.71 1.82 1.68 1.67 1.63 1.55 1.42 1.33 1.26 1.29 1.31 1.30 1.30 1.41 1.45 1.44 1.45 1.56 1.75 1.92 2.12 2.22 2.35 2.50 2.65 2.70 2.61 2.64 2.69 2.70 2.72 2.70 2.61 2.61 2.56 2.52

GEFSCGP_prec_meanprecacc_336.txt.gz
Total_Precipitation_Accumulation
0.04 0.05 0.09 0.10 0.11 0.11 0.14 0.16 0.20 0.24 0.21 0.24 0.41 0.61 0.64 0.82 1.11 1.44 1.82 2.07 2.41 2.76 3.13 3.54 3.62 3.88 4.19 4.80 5.29 5.56 5.66 5.60 5.37 5.08 4.73 4.55 4.55 4.54 4.28 4.03 3.86 3.72 3.58 3.62
0.07 0.07 0.06 0.07 0.10 0.11 0.13 0.17 0.21 0.24 0.21 0.23 0.43 0.64 0.72 1.06 1.39 1.45 1.63 1.79 1.98 2.42 2.76 3.10 3.28 3.37 3.79 4.40 4.85 5.06 4.89 4.91 4.77 4.56 4.50 4.48 4.74 4.46 4.17 4.00 3.83 3.53 3.49 3.58
0.08 0.07 0.04 0.04 0.06 0.09 0.12 0.12 0.16 0.24 0.24 0.31 0.47 0.86 1.02 1.22 1.36 1.39 1.48 1.63 1.75 2.03 2.35 2.69 2.85 2.98 3.22 3.35 3.65 3.86 4.08 4.10 4.04 4.04 4.02 4.12 4.36 4.21 4.07 3.91 3.80 3.41 3.24 3.23
0.05 0.05 0.05 0.06 0.07 0.09 0.12 0.11 0.11 0.17 0.27 0.43 0.58 1.18 1.38 1.32 1.35 1.48 1.47 1.43 1.68 1.97 1.98 2.10 2.37 2.53 2.82 3.00 3.21 3.30 3.40 3.56 3.64 3.76 3.68 3.55 3.45 3.47 3.47 3.53 3.48 3.46 3.30 3.18
0.06 0.05 0.06 0.07 0.08 0.07 0.08 0.09 0.11 0.20 0.32 0.45 0.54 0.90 1.29 1.60 1.66 1.45 1.39 1.27 1.48 1.62 1.53 1.52 1.71 1.87 2.15 2.41 2.65 2.81 2.95 3.10 3.36 3.49 3.43 3.38 3.18 3.18 3.27 3.31 3.33 3.33 3.27 3.20
0.07 0.06 0.06 0.06 0.06 0.06 0.07 0.11 0.20 0.36 0.54 0.81 0.66 0.81 1.25 1.55 1.80 1.54 1.31 1.23 1.34 1.31 1.27 1.39 1.55 1.66 1.83 2.15 2.35 2.47 2.62 2.72 2.94 3.11 3.21 3.29 3.24 3.15 3.12 3.13 3.13 3.12 3.13 3.04
0.13 0.13 0.10 0.07 0.07 0.08 0.09 0.19 0.61 1.01 1.28 1.29 0.83 0.86 1.23 1.21 1.23 1.26 1.21 1.25 1.28 1.21 1.16 1.16 1.26 1.41 1.60 1.86 2.06 2.14 2.26 2.38 2.45 2.57 2.78 2.96 2.94 2.95 2.82 2.75 2.80 2.80 2.62 2.54
0.18 0.25 0.15 0.10 0.10 0.11 0.13 0.21 0.68 1.07 1.10 1.10 0.93 1.19 1.53 1.23 1.15 1.07 1.14 1.23 1.22 1.08 1.02 1.04 1.14 1.20 1.30 1.50 1.75 1.84 1.96 2.09 2.25 2.31 2.45 2.60 2.62 2.61 2.45 2.53 2.55 2.47 2.24 2.18
0.12 0.13 0.09 0.08 0.10 0.14 0.20 0.22 0.31 0.58 0.67 0.85 1.04 1.34 1.55 1.21 1.15 1.26 1.36 1.33 1.27 1.02 0.88 0.90 0.91 0.96 1.00 1.11 1.30 1.45 1.70 1.86 1.97 2.08 2.22 2.26 2.23 2.33 2.30 2.39 2.52 2.37 2.31 2.17
0.08 0.08 0.08 0.08 0.10 0.14 0.18 0.19 0.26 0.51 0.76 0.93 1.03 1.41 1.71 1.62 1.45 1.37 1.43 1.28 1.01 0.84 0.73 0.70 0.70 0.71 0.80 0.93 1.08 1.27 1.45 1.52 1.64 1.87 2.02 1.96 2.18 2.27 2.27 2.28 2.20 2.18 2.23 2.21
0.07 0.06 0.08 0.10 0.13 0.16 0.21 0.24 0.33 0.48 0.55 0.79 1.17 1.41 1.36 1.36 1.26 1.29 1.27 1.10 0.88 0.74 0.66 0.67 0.68 0.70 0.78 0.86 1.03 1.23 1.47 1.59 1.60 1.71 1.88 1.98 2.06 2.18 2.20 2.11 2.02 2.06 2.13 2.16
0.08 0.08 0.12 0.18 0.19 0.18 0.19 0.22 0.32 0.48 0.47 0.52 0.84 1.12 0.78 0.81 0.81 0.89 0.95 0.82 0.76 0.74 0.69 0.74 0.80 0.80 0.83 0.93 1.09 1.28 1.45 1.63 1.71 1.87 2.13 2.26 2.15 2.12 2.14 2.08 1.96 1.87 1.83 1.92
0.12 0.13 0.21 0.41 0.50 0.31 0.20 0.20 0.23 0.29 0.31 0.35 0.65 0.90 0.60 0.65 0.76 0.87 0.96 0.97 0.92 0.85 0.70 0.74 0.93 1.01 0.96 1.03 1.23 1.47 1.63 1.78 1.93 2.08 2.30 2.39 2.23 2.12 2.14 2.05 1.87 1.75 1.69 1.76
0.13 0.16 0.23 0.47 0.55 0.42 0.31 0.25 0.21 0.25 0.33 0.32 0.37 0.59 0.59 0.66 0.82 0.91 0.98 0.99 0.89 0.80 0.78 0.84 0.93 0.98 1.15 1.21 1.34 1.55 1.61 1.78 1.89 1.89 2.06 2.20 2.12 1.97 1.88 1.86 1.82 1.81 1.79 1.75
0.11 0.14 0.15 0.18 0.26 0.32 0.34 0.29 0.23 0.20 0.23 0.36 0.37 0.43 0.55 0.70 0.73 0.90 0.97 0.91 0.86 0.81 0.81 0.88 1.00 1.01 1.04 1.13 1.14 1.23 1.27 1.48 1.50 1.57 1.66 1.74 1.69 1.68 1.64 1.60 1.57 1.63 1.68 1.65
0.20 0.20 0.18 0.18 0.20 0.24 0.27 0.28 0.22 0.16 0.15 0.18 0.31 0.54 0.58 0.63 0.68 0.82 0.83 0.82 0.85 0.93 0.97 1.01 1.09 1.20 1.10 1.06 1.01 0.97 1.04 1.23 1.40 1.53 1.46 1.47 1.53 1.45 1.41 1.43 1.43 1.49 1.57 1.69
0.39 0.35 0.32 0.28 0.24 0.29 0.34 0.29 0.24 0.17 0.15 0.17 0.35 0.63 0.63 0.66 0.74 0.86 0.92 0.94 0.83 0.84 0.92 1.05 1.16 1.20 1.02 0.99 0.98 1.00 1.02 1.12 1.24 1.35 1.43 1.51 1.55 1.49 1.43 1.49 1.59 1.60 1.74 1.80
0.47 0.51 0.45 0.40 0.48 0.61 0.41 0.29 0.27 0.30 0.27 0.26 0.33 0.43 0.51 0.67 0.72 0.74 0.81 0.94 0.96 0.99 1.07 1.13 1.13 1.13 1.10 1.05 1.08 1.08 1.05 1.12 1.25 1.28 1.38 1.51 1.54 1.50 1.52 1.52 1.55 1.67 1.84 1.91
0.37 0.54 0.57 0.54 0.63 0.54 0.46 0.39 0.38 0.45 0.50 0.42 0.51 0.49 0.55 0.62 0.70 0.87 0.76 0.81 0.84 1.00 1.05 1.10 1.12 1.14 1.19 1.18 1.27 1.25 1.16 1.20 1.33 1.45 1.52 1.49 1.54 1.61 1.67 1.70 1.73 1.80 1.85 1.86
0.47 0.60 0.74 0.69 0.82 0.83 0.69 0.58 0.52 0.56 0.90 0.69 0.67 0.69 0.78 0.84 0.99 1.18 0.96 0.86 0.94 1.01 0.98 1.02 1.02 1.09 1.21 1.24 1.38 1.48 1.48 1.45 1.50 1.61 1.72 1.74 1.84 1.95 1.92 2.01 2.14 2.16 2.16 2.11
0.97 0.96 0.88 0.89 1.01 1.01 0.79 0.68 0.64 1.10 1.33 0.87 0.78 0.84 0.85 0.90 1.02 1.07 1.07 1.07 1.04 0.88 0.84 0.90 1.01 1.02 1.13 1.33 1.54 1.71 1.71 1.65 1.73 1.85 1.99 2.14 2.25 2.43 2.57 2.66 2.56 2.47 2.48 2.49
1.15 1.24 1.23 1.26 1.44 1.36 0.86 0.81 1.17 1.43 1.10 1.11 1.00 0.94 0.95 0.89 0.97 1.05 1.05 1.02 0.91 0.89 0.89 0.95 1.08 1.09 1.14 1.35 1.54 1.72 1.78 1.82 1.99 2.14 2.32 2.45 2.65 2.73 2.82 3.20 3.25 3.23 3.14 2.86
1.30 1.36 1.36 1.41 1.52 1.26 1.07 1.23 1.33 1.31 1.30 1.35 1.38 1.20 1.10 1.02 1.03 1.07 1.01 0.93 0.86 0.87 0.89 0.96 1.12 1.24 1.29 1.41 1.66 1.93 1.98 2.03 2.17 2.32 2.54 2.69 2.76 2.91 3.05 3.22 3.23 3.22 3.16 2.90
1.46 1.22 1.38 1.56 1.65 1.44 1.37 1.37 1.40 1.39 1.33 1.34 1.43 1.55 1.52 1.27 1.13 1.13 1.09 1.00 0.98 1.04 1.02 1.07 1.20 1.36 1.55 1.67 1.87 2.12 2.18 2.30 2.38 2.44 2.57 2.67 2.78 2.90 3.08 3.23 3.18 3.12 3.05 2.99
1.46 1.50 1.71 1.99 1.96 1.78 1.63 1.66 1.75 1.63 1.50 1.53 1.54 1.58 1.65 1.36 1.15 1.10 1.16 1.14 1.14 1.24 1.29 1.30 1.37 1.51 1.74 1.89 2.04 2.12 2.18 2.38 2.57 2.55 2.59 2.68 2.71 2.74 2.87 2.95 3.07 3.01 2.95 2.98
1.49 1.70 2.00 2.24 2.05 2.11 1.94 1.64 1.72 1.83 1.68 1.68 1.63 1.56 1.43 1.33 1.27 1.29 1.31 1.30 1.31 1.42 1.46 1.46 1.47 1.59 1.78 1.95 2.15 2.25 2.37 2.52 2.66 2.70 2.62 2.65 2.70 2.72 2.73 2.71 2.63 2.64 2.58 2.54

GEFSCGP_prec_meanprecacc_342.txt.gz
Total_Precipitation_Accumulation
0.04 0.06 0.11 0.11 0.11 0.12 0.14 0.16 0.21 0.24 0.21 0.24 0.41 0.61 0.65 0.83 1.12 1.45 1.83 2.08 2.43 2.78 3.14 3.56 3.63 3.88 4.20 4.81 5.30 5.58 5.68 5.63 5.41 5.12 4.78 4.60 4.60 4.58 4.32 4.08 3.91 3.78 3.66 3.70
0.08 0.08 0.06 0.07 0.10 0.11 0.13 0.17 0.21 0.25 0.21 0.23 0.43 0.65 0.75 1.07 1.40 1.45 1.64 1.80 2.00 2.44 2.78 3.11 3.29 3.37 3.80 4.41 4.87 5.08 4.91 4.93 4.80 4.60 4.55 4.53 4.79 4.51 4.21 4.04 3.89 3.57 3.53 3.64
0.08 0.09 0.05 0.05 0.06 0.09 0.12 0.12 0.17 0.24 0.24 0.31 0.49 0.90 1.07 1.24 1.38 1.40 1.49 1.64 1.76 2.04 2.36 2.70 2.85 2.99 3.23 3.36 3.66 3.88 4.10 4.13 4.07 4.08 4.06 4.16 4.41 4.26 4.12 3.97 3.87 3.46 3.28 3.27
0.06 0.05 0.06 0.06 0.07 0.09 0.12 0.11 0.11 0.17 0.28 0.45 0.60 1.21 1.41 1.33 1.37 1.49 1.48 1.44 1.68 1.98 1.98 2.11 2.38 2.54 2.83 3.02 3.23 3.32 3.43 3.60 3.68 3.80 3.72 3.59 3.50 3.51 3.52 3.59 3.53 3.50 3.32 3.21
0.06 0.06 0.06 0.08 0.08 0.07 0.09 0.09 0.11 0.21 0.33 0.47 0.56 0.95 1.34 1.62 1.69 1.48 1.40 1.28 1.49 1.63 1.54 1.53 1.73 1.89 2.18 2.44 2.68 2.84 2.98 3.14 3.39 3.52 3.46 3.44 3.23 3.23 3.32 3.36 3.38 3.37 3.30 3.22
0.07 0.06 0.06 0.06 0.06 0.06 0.07 0.12 0.20 0.37 0.56 0.84 0.68 0.84 1.30 1.58 1.82 1.58 1.33 1.24 1.35 1.32 1.29 1.40 1.56 1.68 1.85 2.18 2.38 2.50 2.65 2.75 2.97 3.14 3.24 3.34 3.30 3.21 3.18 3.17 3.16 3.14 3.15 3.05
0.13 0.13 0.10 0.07 0.07 0.08 0.09 0.20 0.63 1.03 1.32 1.31 0.85 0.87 1.26 1.23 1.25 1.27 1.22 1.26 1.29 1.22 1.17 1.17 1.26 1.42 1.62 1.88 2.08 2.16 2.29 2.40 2.48 2.60 2.81 3.00 3.00 3.00 2.84 2.76 2.81 2.82 2.64 2.55
0.18 0.25 0.16 0.10 0.10 0.11 0.13 0.21 0.69 1.09 1.13 1.13 0.94 1.20 1.55 1.25 1.15 1.08 1.14 1.24 1.22 1.09 1.04 1.06 1.16 1.22 1.32 1.52 1.76 1.85 1.98 2.11 2.27 2.33 2.47 2.62 2.64 2.63 2.47 2.56 2.57 2.49 2.25 2.19
0.12 0.13 0.09 0.08 0.10 0.14 0.20 0.22 0.32 0.60 0.69 0.86 1.05 1.35 1.59 1.26 1.16 1.27 1.37 1.34 1.28 1.03 0.90 0.92 0.93 0.97 1.01 1.12 1.30 1.45 1.71 1.87 1.99 2.10 2.24 2.29 2.26 2.34 2.32 2.41 2.54 2.38 2.32 2.17
0.08 0.09 0.08 0.08 0.10 0.14 0.18 0.19 0.26 0.52 0.77 0.94 1.04 1.44 1.78 1.67 1.46 1.38 1.44 1.29 1.02 0.84 0.75 0.71 0.71 0.71 0.81 0.94 1.08 1.28 1.46 1.53 1.65 1.88 2.04 1.97 2.19 2.28 2.28 2.29 2.21 2.20 2.25 2.22
0.07 0.06 0.08 0.10 0.13 0.16 0.21 0.24 0.33 0.49 0.56 0.80 1.19 1.43 1.38 1.37 1.27 1.30 1.28 1.11 0.89 0.75 0.67 0.68 0.68 0.70 0.78 0.86 1.03 1.24 1.47 1.60 1.61 1.72 1.88 1.99 2.07 2.19 2.21 2.13 2.03 2.08 2.15 2.18
0.08 0.08 0.12 0.18 0.19 0.18 0.19 0.22 0.32 0.49 0.48 0.54 0.85 1.13 0.80 0.82 0.82 0.90 0.96 0.84 0.79 0.77 0.69 0.75 0.80 0.80 0.83 0.94 1.10 1.29 1.46 1.64 1.72 1.89 2.14 2.27 2.17 2.13 2.16 2.11 1.98 1.89 1.85 1.94
0.12 0.13 0.21 0.42 0.51 0.31 0.20 0.20 0.23 0.29 0.31 0.36 0.68 0.91 0.61 0.66 0.78 0.90 0.98 0.98 0.95 0.87 0.71 0.75 0.94 1.01 0.96 1.04 1.23 1.47 1.65 1.80 1.94 2.09 2.31 2.41 2.25 2.14 2.16 2.07 1.89 1.77 1.71 1.78
0.13 0.16 0.23 0.49 0.57 0.43 0.32 0.25 0.21 0.25 0.33 0.32 0.38 0.61 0.60 0.67 0.85 0.95 0.99 1.00 0.90 0.81 0.78 0.85 0.94 0.99 1.16 1.23 1.35 1.56 1.63 1.80 1.91 1.91 2.07 2.21 2.13 1.98 1.89 1.87 1.83 1.82 1.81 1.77
0.11 0.14 0.15 0.19 0.26 0.32 0.34 0.29 0.23 0.20 0.23 0.36 0.37 0.45 0.56 0.71 0.75 0.92 0.98 0.92 0.87 0.82 0.82 0.89 1.01 1.02 1.06 1.14 1.16 1.26 1.29 1.49 1.52 1.58 1.67 1.75 1.70 1.70 1.66 1.62 1.58 1.63 1.69 1.66
0.20 0.20 0.18 0.18 0.20 0.24 0.27 0.28 0.23 0.16 0.15 0.18 0.31 0.54 0.58 0.63 0.69 0.84 0.85 0.82 0.86 0.94 0.98 1.02 1.09 1.20 1.11 1.06 1.02 0.98 1.06 1.25 1.42 1.54 1.48 1.49 1.54 1.47 1.43 1.45 1.44 1.49 1.57 1.69
0.39 0.35 0.32 0.28 0.24 0.29 0.34 0.29 0.24 0.17 0.16 0.17 0.35 0.63 0.63 0.67 0.77 0.91 0.96 0.95 0.84 0.85 0.92 1.05 1.16 1.20 1.03 1.00 0.98 1.01 1.04 1.15 1.27 1.37 1.45 1.52 1.56 1.51 1.45 1.50 1.60 1.61 1.75 1.81
0.47 0.52 0.46 0.40 0.48 0.62 0.41 0.29 0.27 0.30 0.27 0.26 0.33 0.43 0.51 0.67 0.73 0.78 0.84 0.98 0.99 0.99 1.07 1.13 1.13 1.13 1.10 1.06 1.08 1.08 1.07 1.14 1.27 1.30 1.40 1.52 1.56 1.52 1.53 1.53 1.56 1.68 1.85 1.92
0.37 0.55 0.57 0.54 0.63 0.55 0.46 0.39 0.38 0.45 0.51 0.42 0.51 0.49 0.55 0.62 0.70 0.89 0.82 0.85 0.84 1.00 1.05 1.10 1.12 1.14 1.19 1.19 1.27 1.26 1.19 1.23 1.35 1.47 1.53 1.50 1.56 1.63 1.69 1.72 1.75 1.82 1.87 1.89
0.47 0.60 0.75 0.69 0.83 0.84 0.71 0.60 0.52 0.56 0.91 0.70 0.67 0.69 0.78 0.84 0.99 1.20 1.02 0.90 0.94 1.01 0.98 1.03 1.02 1.09 1.21 1.24 1.39 1.49 1.49 1.47 1.53 1.67 1.74 1.76 1.87 1.98 1.95 2.04 2.17 2.20 2.19 2.14
0.98 0.98 0.89 0.90 1.02 1.03 0.81 0.69 0.65 1.11 1.36 0.88 0.78 0.85 0.85 0.90 1.03 1.09 1.12 1.12 1.05 0.88 0.84 0.90 1.01 1.02 1.13 1.33 1.55 1.73 1.74 1.68 1.76 1.89 2.03 2.18 2.27 2.46 2.61 2.71 2.62 2.53 2.53 2.53
1.16 1.26 1.24 1.27 1.45 1.38 0.87 0.82 1.18 1.45 1.12 1.12 1.00 0.95 0.95 0.90 0.97 1.05 1.08 1.07 0.92 0.90 0.89 0.95 1.08 1.09 1.15 1.35 1.56 1.76 1.82 1.85 2.03 2.17 2.35 2.48 2.68 2.79 2.91 3.29 3.33 3.31 3.21 2.93
1.30 1.37 1.38 1.44 1.55 1.28 1.10 1.25 1.34 1.32 1.30 1.36 1.39 1.21 1.11 1.04 1.05 1.09 1.03 0.95 0.87 0.88 0.89 0.96 1.12 1.25 1.30 1.43 1.68 1.96 2.01 2.07 2.20 2.35 2.57 2.72 2.81 2.96 3.11 3.27 3.27 3.27 3.20 2.94
1.48 1.24 1.41 1.60 1.68 1.47 1.39 1.39 1.42 1.40 1.34 1.35 1.44 1.56 1.53 1.28 1.15 1.16 1.11 1.02 1.00 1.05 1.02 1.07 1.20 1.37 1.56 1.69 1.89 2.14 2.20 2.34 2.41 2.48 2.60 2.71 2.81 2.94 3.13 3.28 3.21 3.15 3.08 3.04
1.49 1.53 1.74 2.03 1.99 1.80 1.66 1.68 1.77 1.64 1.51 1.54 1.55 1.59 1.66 1.37 1.16 1.11 1.19 1.16 1.16 1.25 1.29 1.30 1.38 1.52 1.74 1.90 2.06 2.14 2.20 2.41 2.60 2.59 2.63 2.72 2.75 2.78 2.91 2.99 3.10 3.04 2.97 3.00
1.52 1.74 2.05 2.28 2.08 2.15 1.98 1.67 1.74 1.84 1.69 1.69 1.64 1.57 1.45 1.34 1.28 1.31 1.33 1.32 1.32 1.43 1.46 1.47 1.48 1.60 1.79 1.95 2.16 2.26 2.39 2.54 2.69 2.75 2.66 2.69 2.73 2.74 2.76 2.73 2.64 2.65 2.59 2.55